Flag for Brazil Weather past 2 weeks in Florianópolis, Santa Catarina, Brazil

Now
82 °F

Passing clouds.


Feels Like: 89 °F
Forecast: 77 / 89 °F
Wind: 9 mph from Northeast

Location: Florianopolis Aeroporto

Current Time: Jan 28, 2015 at 12:20:56 AM

Latest Report: Jan 28, 2015 at 12:00 AM


Visibility: N/A

Pressure: 29.89 "Hg

Humidity: 79%

Dew point: 75 °F

Location of FlorianópolisLocation

Historic Weather in Florianópolis — Graph

°F

Florianópolis temperature yesterday

Maximum temperature yesterday: 90 °F (at 2:00 PM)
Minimum temperature yesterday: 75 °F (at 7:00 AM)
Average temperature yesterday: 83 °F

Past Weeks' High & Low Weather Summary

 TemperatureHumidityPressure
High95 °F (Jan 17, 3:00 PM)94% (Jan 15, 5:00 AM)30.12 "Hg (Jan 15, 5:00 AM)
Low68 °F (Jan 23, 4:00 AM)21% (Jan 17, 6:00 PM)29.77 "Hg (Jan 14, 5:00 PM)
Average80 °F75%29.93 "Hg
* Reported Jan 12 11:00 PM — Jan 27 11:00 PM, Florianópolis, Weather by CustomWeather, © 2014

Note: Actual official high and low records may vary slightly from our data, if they occured in-between our weather recording intervals... More about our weather records

Advertising

Florianópolis weather history for previous 24 hours

 ConditionsComfort  
Time TempWeatherWind HumidityBarometerVisibility
11:00 PM
Jan 27
82 °FPassing clouds.8 mph79%29.89 "HgN/A
10:00 PM82 °FPassing clouds.6 mph84%29.86 "HgN/A
9:00 PM82 °FPassing clouds.10 mph84%29.83 "HgN/A
8:00 PM82 °FPassing clouds.8 mph79%29.80 "HgN/A
7:00 PM84 °FPassing clouds.12 mph74%29.83 "HgN/A
6:00 PM86 °FPassing clouds.9 mph70%29.83 "HgN/A
5:00 PM86 °FPassing clouds.10 mph70%29.80 "HgN/A
4:00 PM88 °FPassing clouds.10 mph66%29.83 "HgN/A
3:00 PM90 °FPassing clouds.13 mph63%29.83 "HgN/A
2:00 PM90 °FPassing clouds.12 mph63%29.86 "HgN/A
1:00 PM88 °FPassing clouds.13 mph66%29.89 "HgN/A
12:00 PM88 °FSunny.13 mph62%29.89 "Hg10 mi
11:00 AM86 °FSunny.10 mph66%29.92 "Hg10 mi
10:00 AM82 °FSunny.7 mph74%29.92 "Hg10 mi
9:00 AM81 °FSunny.8 mph79%29.89 "Hg10 mi
8:00 AM79 °FSunny.8 mph84%29.89 "Hg10 mi
7:00 AM75 °FPassing clouds.2 mph89%29.86 "HgN/A
6:00 AM77 °FPassing clouds.3 mph89%29.86 "HgN/A
5:00 AM81 °FPassing clouds.6 mph79%29.89 "HgN/A
4:00 AM77 °FPassing clouds.3 mph83%29.86 "HgN/A
3:00 AM79 °FPassing clouds.5 mph84%29.89 "HgN/A
2:00 AM79 °FPassing clouds.5 mph84%29.89 "HgN/A
1:00 AM81 °FPassing clouds.5 mph79%29.89 "HgN/A
12:00 AM81 °FThunderstorms. Passing clouds.5 mph79%29.89 "HgN/A
Weather by CustomWeather, © 2014

See weather overviewHow to use our weather pages